When you browse on this site, cookies collect data to enhance your experience and personalize the content and advertising you see.
Visit our Privacy Policy to learn more. By continuing to use the site, you agree to this use of cookies and data.
  • In Lithuania
  • List of Countries
  • For 7 days
  • Water Temperature
  • Satellite Maps
  • Weather Map
  • Weather Widgets
  • user-avatar
    Login

    Hourly Weather Emmanuelevskiy

    Today, 20 February, Wednesday

    Time Temperature Precipitation Wind Pressure Humidity
    00:00 -2°C° 0 mm 2 mps 761 mmHg 56%
    01:00 -2°C° 0 mm 2 mps 760 mmHg 56%
    02:00 -2°C° 0 mm 2 mps 760 mmHg 56%
    03:00 -3°C° 0 mm 2 mps 760 mmHg 53%
    04:00 -3°C° 0 mm 2 mps 759 mmHg 53%
    05:00 -3°C° 0 mm 2 mps 759 mmHg 52%
    06:00 -2°C° 0 mm 2 mps 759 mmHg 52%
    07:00 -2°C° 0 mm 2 mps 759 mmHg 49%
    08:00 -1°C° 0 mm 2 mps 758 mmHg 46%
    09:00 +1°C° 0 mm 2 mps 758 mmHg 41%
    10:00 +4°C° 0 mm 1 mps 758 mmHg 37%
    11:00 +5°C° 0 mm 1 mps 757 mmHg 33%
    12:00 +7°C° 0 mm 1 mps 757 mmHg 29%
    13:00 +7°C° 0 mm 1 mps 757 mmHg 29%
    14:00 +8°C° 0 mm 1 mps 756 mmHg 29%
    15:00 +8°C° 0 mm 0 mps 756 mmHg 28%
    16:00 +7°C° 0 mm 0 mps 756 mmHg 31%
    17:00 +6°C° 0 mm 0 mps 755 mmHg 35%
    18:00 +5°C° 0 mm 0 mps 755 mmHg 39%
    19:00 +4°C° 0 mm 0 mps 755 mmHg 40%
    20:00 +5°C° 0 mm 1 mps 755 mmHg 42%
    21:00 +4°C° 0 mm 1 mps 755 mmHg 43%
    22:00 +4°C° 0 mm 1 mps 755 mmHg 45%
    23:00 +3°C° 0 mm 2 mps 755 mmHg 47%

    Tomorrow, 21 February, Thursday

    Time Temperature Precipitation Wind Pressure Humidity
    00:00 +3°C° 0 mm 2 mps 755 mmHg 48%
    01:00 +3°C° 0 mm 2 mps 755 mmHg 50%
    02:00 +2°C° 0 mm 2 mps 755 mmHg 52%
    03:00 +2°C° 0 mm 2 mps 754 mmHg 53%
    04:00 +2°C° 0 mm 2 mps 754 mmHg 55%
    05:00 +2°C° 0 mm 2 mps 754 mmHg 56%
    06:00 +2°C° 0 mm 2 mps 754 mmHg 57%
    07:00 +3°C° 0 mm 2 mps 754 mmHg 54%
    08:00 +4°C° 0 mm 2 mps 754 mmHg 51%
    09:00 +5°C° 0 mm 2 mps 754 mmHg 48%
    10:00 +5°C° 0 mm 3 mps 753 mmHg 45%
    11:00 +7°C° 0 mm 4 mps 753 mmHg 42%
    12:00 +8°C° 0 mm 5 mps 753 mmHg 38%
    13:00 +9°C° 0 mm 6 mps 752 mmHg 43%
    14:00 +9°C° 0 mm 7 mps 752 mmHg 47%
    15:00 +9°C° 0 mm 8 mps 751 mmHg 51%
    16:00 +7°C° 0 mm 8 mps 751 mmHg 59%
    17:00 +6°C° 0 mm 7 mps 751 mmHg 66%
    18:00 +5°C° 0 mm 7 mps 751 mmHg 73%
    19:00 +5°C° 0 mm 7 mps 752 mmHg 70%
    20:00 +4°C° 0 mm 8 mps 752 mmHg 67%
    21:00 +4°C° 0 mm 8 mps 752 mmHg 63%
    22:00 +2°C° 0 mm 8 mps 752 mmHg 65%
    23:00 +2°C° 0 mm 8 mps 752 mmHg 68%

    Day after tomorrow, 22 February, Friday

    Time Temperature Precipitation Wind Pressure Humidity
    00:00 +1°C° 0 mm 8 mps 752 mmHg 70%
    01:00 0°C° 0 mm 8 mps 753 mmHg 67%
    02:00 0°C° 0 mm 8 mps 753 mmHg 65%
    03:00 -1°C° 0 mm 7 mps 753 mmHg 62%
    04:00 -2°C° 0 mm 6 mps 753 mmHg 64%
    05:00 -3°C° 0 mm 6 mps 754 mmHg 66%
    06:00 -2°C° 0 mm 5 mps 754 mmHg 68%
    07:00 -2°C° 0 mm 5 mps 754 mmHg 66%
    08:00 -3°C° 0 mm 6 mps 755 mmHg 63%
    09:00 -2°C° 0 mm 7 mps 755 mmHg 60%
    10:00 -1°C° 0 mm 7 mps 755 mmHg 55%
    11:00 0°C° 0 mm 8 mps 755 mmHg 50%
    12:00 +1°C° 0 mm 8 mps 754 mmHg 45%
    13:00 +1°C° 0 mm 8 mps 754 mmHg 44%
    14:00 +2°C° 0 mm 8 mps 754 mmHg 43%
    15:00 +4°C° 0 mm 7 mps 754 mmHg 42%
    16:00 +3°C° 0 mm 6 mps 754 mmHg 47%
    17:00 +4°C° 0 mm 4 mps 754 mmHg 52%
    18:00 +4°C° 0 mm 2 mps 754 mmHg 56%
    19:00 +4°C° 0.1 mm 2 mps 754 mmHg 58%
    20:00 +4°C° 0.1 mm 2 mps 754 mmHg 60%
    21:00 +2°C° 0.1 mm 3 mps 754 mmHg 62%
    22:00 +3°C° 0 mm 3 mps 754 mmHg 64%
    23:00 +3°C° 0 mm 3 mps 754 mmHg 66%

    23 February, Saturday

    Time Temperature Precipitation Wind Pressure Humidity
    00:00 +3°C° 0 mm 3 mps 754 mmHg 67%
    01:00 +3°C° 0.1 mm 4 mps 753 mmHg 68%
    02:00 +3°C° 0.1 mm 4 mps 753 mmHg 69%
    03:00 +2°C° 0.1 mm 5 mps 753 mmHg 70%
    04:00 +2°C° 0.1 mm 5 mps 753 mmHg 70%
    05:00 +2°C° 0.1 mm 5 mps 753 mmHg 71%
    06:00 +2°C° 0.1 mm 5 mps 753 mmHg 72%
    07:00 +2°C° 0 mm 5 mps 753 mmHg 71%
    08:00 +3°C° 0 mm 5 mps 754 mmHg 71%
    09:00 +4°C° 0 mm 4 mps 754 mmHg 70%
    10:00 +5°C° 0 mm 4 mps 754 mmHg 67%
    11:00 +6°C° 0 mm 4 mps 754 mmHg 64%
    12:00 +7°C° 0 mm 4 mps 753 mmHg 61%
    13:00 +8°C° 0.2 mm 3 mps 753 mmHg 63%
    14:00 +8°C° 0.2 mm 2 mps 753 mmHg 65%
    15:00 +9°C° 0.2 mm 1 mps 754 mmHg 66%
    16:00 +7°C° 0.2 mm 2 mps 754 mmHg 70%
    17:00 +7°C° 0.2 mm 2 mps 754 mmHg 74%
    18:00 +6°C° 0.2 mm 2 mps 754 mmHg 78%
    19:00 +6°C° 0.1 mm 2 mps 755 mmHg 78%
    20:00 +6°C° 0.1 mm 2 mps 755 mmHg 79%
    21:00 +5°C° 0.1 mm 3 mps 756 mmHg 79%
    22:00 +6°C° 0.1 mm 2 mps 756 mmHg 80%
    23:00 +6°C° 0.1 mm 2 mps 756 mmHg 80%

    24 February, Sunday

    Time Temperature Precipitation Wind Pressure Humidity
    00:00 +5°C° 0.1 mm 2 mps 756 mmHg 81%
    01:00 +5°C° 0.2 mm 2 mps 757 mmHg 84%
    02:00 +5°C° 0.2 mm 2 mps 757 mmHg 88%
    03:00 +4°C° 0.2 mm 2 mps 757 mmHg 91%
    04:00 +2°C° 0.2 mm 3 mps 757 mmHg 91%
    05:00 +2°C° 0.2 mm 3 mps 757 mmHg 91%
    06:00 +1°C° 0.2 mm 3 mps 758 mmHg 91%
    07:00 +1°C° 0.4 mm 3 mps 758 mmHg 90%
    08:00 +1°C° 0.4 mm 3 mps 758 mmHg 90%
    09:00 0°C° 0.4 mm 3 mps 759 mmHg 90%
    10:00 0°C° 0.4 mm 3 mps 759 mmHg 90%
    11:00 0°C° 0.4 mm 3 mps 759 mmHg 89%
    12:00 0°C° 0.4 mm 3 mps 759 mmHg 89%
    13:00 0°C° 0.4 mm 3 mps 759 mmHg 89%
    14:00 0°C° 0.4 mm 3 mps 759 mmHg 90%
    15:00 0°C° 0.4 mm 3 mps 759 mmHg 90%
    16:00 0°C° 0.3 mm 3 mps 759 mmHg 90%
    17:00 0°C° 0.3 mm 3 mps 759 mmHg 90%
    18:00 0°C° 0.3 mm 3 mps 759 mmHg 91%
    19:00 -1°C° 0.1 mm 3 mps 760 mmHg 90%
    20:00 -1°C° 0.1 mm 3 mps 760 mmHg 90%
    21:00 -2°C° 0.1 mm 4 mps 760 mmHg 89%
    22:00 -3°C° 0.2 mm 4 mps 760 mmHg 90%
    23:00 -3°C° 0.2 mm 4 mps 760 mmHg 90%

    25 February, Monday

    Time Temperature Precipitation Wind Pressure Humidity
    00:00 -4°C° 0.2 mm 4 mps 760 mmHg 91%
    01:00 -4°C° 0.1 mm 4 mps 760 mmHg 89%
    02:00 -4°C° 0.1 mm 4 mps 760 mmHg 88%
    03:00 -5°C° 0.1 mm 4 mps 760 mmHg 87%
    04:00 -5°C° 0 mm 3 mps 759 mmHg 86%
    05:00 -5°C° 0 mm 3 mps 759 mmHg 85%
    06:00 -5°C° 0 mm 3 mps 759 mmHg 84%
    07:00 -5°C° 0 mm 3 mps 759 mmHg 82%
    08:00 -4°C° 0 mm 2 mps 759 mmHg 79%
    09:00 -4°C° 0 mm 2 mps 759 mmHg 77%
    10:00 -3°C° 0 mm 2 mps 758 mmHg 75%
    11:00 -3°C° 0 mm 2 mps 758 mmHg 73%
    12:00 -2°C° 0 mm 2 mps 757 mmHg 70%
    13:00 -2°C° 0 mm 2 mps 757 mmHg 68%
    14:00 -1°C° 0 mm 2 mps 756 mmHg 66%
    15:00 +1°C° 0 mm 1 mps 755 mmHg 63%
    16:00 +1°C° 0 mm 1 mps 755 mmHg 67%
    17:00 0°C° 0 mm 1 mps 755 mmHg 70%
    18:00 -1°C° 0 mm 0 mps 755 mmHg 73%
    19:00 0°C° 0 mm 1 mps 754 mmHg 74%
    20:00 0°C° 0 mm 1 mps 754 mmHg 75%
    21:00 -3°C° 0 mm 2 mps 754 mmHg 76%
    22:00 -3°C° 0 mm 2 mps 754 mmHg 77%
    23:00 -3°C° 0 mm 2 mps 753 mmHg 78%
    Show more